Tracking 27111 objects as of 28-Mar-2023
HD Live streaming from Space Station
objects crossing your sky now

ORBCOMM FM 4

Track ORBCOMM FM 4 now!
10-day predictions
ORBCOMM FM 4 is classified as:


NORAD ID: 25159
Int'l Code: 1998-007C
Perigee: 763.2 km
Apogee: 827.8 km
Inclination: 108.0 °
Period: 100.6 minutes
Semi major axis: 7166 km
RCS: 1.0023 m2 (large)
Launch date: February 10, 1998
Source: ORBCOMM (ORB)
Launch site: AIR FORCE WESTERN TEST RANGE (AFWTR)
Your satellite tracking list
Your tracking list is empty




NASA's NSSDC Master Catalog

Two Line Element Set (TLE):
1 25159U 98007C   23086.77813726  .00002022  00000-0  80767-3 0  9993
2 25159 107.9854 274.3728 0045051 224.3067 135.4461 14.31015523307874
Source of the keplerian elements: AFSPC